Location: Innerarity Island Observatory
(30.3139°N, 87.4867°W)
Time: 07:05:15
(UTC-05:00)

OPAL - Visible Passes

Search period start: 31 October 2014 00:00
Search period end: 09 November 2014 23:00
Orbit: 744 x 797 km, 100.2° (Epoch: 31 October)

Date Brightness Start Highest point End Pass type
(mag) Time Alt. Az. Time Alt. Az. Time Alt. Az.
31 Oct 8.7 04:51:54 10° SE 04:56:39 40° ENE 05:01:22 10° N visible
31 Oct 8.9 06:32:09 10° SW 06:35:35 18° W 06:39:00 10° NW visible
31 Oct 8.9 18:46:10 10° N 18:50:46 40° WNW 18:55:21 10° SW visible
01 Nov 10.0 04:18:26 10° ESE 04:21:42 17° ENE 04:24:58 10° NNE visible
01 Nov 7.8 05:55:20 10° S 06:00:12 43° WSW 06:05:02 10° NNW visible
02 Nov 7.6 04:19:51 10° SSE 04:24:58 77° ENE 04:30:02 10° N visible
02 Nov 9.9 18:15:18 10° NNW 18:18:58 21° WNW 18:22:38 10° WSW visible
03 Nov 9.1 03:45:24 10° SE 03:49:53 32° ENE 03:54:20 10° N visible
03 Nov 8.7 05:24:45 10° SSW 05:28:42 22° W 05:32:38 10° NW visible
03 Nov 8.4 17:39:11 10° N 17:43:58 50° WNW 17:48:44 10° SSW visible
04 Nov 10.3 03:12:28 10° E 03:14:59 14° ENE 03:17:29 10° NE visible
04 Nov 7.6 04:48:22 10° S 04:53:22 55° WSW 04:58:19 10° NNW visible
04 Nov 10.5 18:45:46 10° NW 18:47:04 11° WNW 18:48:22 10° WNW visible
05 Nov 7.9 04:13:08 10° SSE 04:18:10 61° ENE 04:23:08 10° N visible
05 Nov 9.6 18:08:07 10° NNW 18:12:12 26° WNW 18:16:17 10° SW visible
06 Nov 9.5 03:38:59 10° ESE 03:43:07 26° ENE 03:47:13 10° NNE visible
06 Nov 8.4 05:17:30 10° SSW 05:21:50 28° W 05:26:08 10° NW visible
06 Nov 8.0 17:32:15 10° N 17:37:09 64° WNW 17:42:03 10° SSW visible
07 Nov 10.4 03:07:03 10° ENE 03:08:15 11° ENE 03:09:28 10° NE visible
07 Nov 7.4 04:41:27 10° S 04:46:31 69° WSW 04:51:32 10° NNW visible
07 Nov 10.3 18:37:50 10° NW 18:40:20 14° WNW 18:42:51 10° W visible
08 Nov 8.3 04:06:29 10° SE 04:11:22 49° ENE 04:16:11 10° N visible
08 Nov 9.2 18:01:01 10° N 18:05:25 33° WNW 18:09:49 10° SW visible
09 Nov 9.8 03:32:40 10° ESE 03:36:21 21° ENE 03:40:01 10° NNE visible
09 Nov 8.1 05:10:21 10° SSW 05:14:57 35° W 05:19:32 10° NW visible
09 Nov 7.6 17:25:21 10° NNE 17:30:19 81° WNW 17:35:18 10° SSW visible
